Pauma Valley (249, 217) Station Data

Red Flag Warning: No
Fire Weather Zone: 250
SDGE Region: North East
Lat/Lon: 33.371/-117.079

Observations

Time Wind Speed/Gust Temp(F) RH Fuel Moist Fuel Temp(F) Dewpt(F) Tmax(F) Tmin(F) Accum Precip 10-min Precip SL Press(mb)
4/26 2:40am 353 1 G 2 49° 78% - - 43° 53° 49.1° - - -
4/26 2:30am 45 1 G 3 50° 76% - - 43° 53° 49.2° - - -
4/26 2:20am 87 0 G 1 50° 76% - - 43° 53° 49.6° - - -
4/26 2:10am 312 0 G 0 50° 76% - - 43° 53° 49.8° - - -
4/26 2:00am 0 0 G 0 50° 75% - - 42° 53° 49.8° - - -
4/26 1:50am 343 1 G 3 50° 76% - - 43° 53° 50° - - -
4/26 1:40am 333 1 G 2 50° 75% - - 43° 53° 50° - - -
4/26 1:30am 108 1 G 2 50° 74% - - 42° 53° 50.1° - - -
4/26 1:20am 194 0 G 1 51° 73% - - 42° 53° 50.3° - - -
4/26 1:10am 163 1 G 2 52° 73% - - 43° 53° 51.2° - - -
4/26 1:00am 355 2 G 4 52° 73% - - 44° 53° 51.5° - - -
4/26 12:50am 344 3 G 4 52° 73% - - 44° 53° 51.5° - - -
4/26 12:40am 345 1 G 4 52° 72% - - 43° 53° 51.6° - - -
4/26 12:30am 24 1 G 2 52° 70% - - 43° 53° 51.9° - - -
4/26 12:20am 46 1 G 2 52° 70% - - 43° 53° 52.1° - - -
4/26 12:10am 27 0 G 1 53° 70% - - 43° 53° 52.2° - - -
4/26 12:00am 0 0 G 0 53° 70% - - 44° 69.8° 52.9° - - -
4/25 11:50pm 8 0 G 1 53° 70% - - 44° 69.8° 53.2° - - -
4/25 11:40pm 20 1 G 2 54° 68% - - 43° 69.8° 53.3° - - -
4/25 11:30pm 263 1 G 3 54° 67% - - 43° 69.8° 53.8° - - -
4/25 11:20pm 259 1 G 4 54° 66% - - 43° 69.8° 54° - - -
4/25 11:10pm 115 0 G 0 55° 65% - - 43° 69.8° 54.4° - - -
4/25 11:00pm 0 0 G 0 55° 64% - - 43° 69.8° 54.6° - - -
4/25 10:50pm 306 0 G 1 55° 64% - - 43° 69.8° 54.6° - - -
4/25 10:40pm 207 0 G 2 55° 66% - - 44° 69.8° 54.9° - - -
4/25 10:30pm 4 1 G 2 56° 66% - - 45° 69.8° 55.3° - - -
4/25 10:20pm 15 1 G 2 56° 64% - - 44° 69.8° 55.6° - - -
4/25 10:10pm 318 1 G 2 56° 62% - - 43° 69.8° 55.9° - - -
4/25 10:00pm 227 0 G 1 57° 60% - - 43° 69.8° 56.9° - - -
4/25 9:50pm 221 0 G 1 57° 57% - - 42° 69.8° 57.2° - - -
4/25 9:40pm 189 1 G 2 58° 56% - - 42° 69.8° 57.5° - - -
4/25 9:30pm 172 1 G 2 58° 58% - - 43° 69.8° 57.7° - - -
4/25 9:20pm 5 1 G 1 59° 58% - - 44° 69.8° 57.7° - - -
4/25 9:10pm 300 1 G 2 60° 59% - - 45° 69.8° 57.7° - - -
4/25 9:00pm 156 0 G 1 60° 58% - - 45° 69.8° 57.7° - - -
4/25 8:50pm 329 1 G 2 60° 58% - - 46° 69.8° 57.7° - - -
4/25 8:40pm 272 2 G 3 60° 57% - - 45° 69.8° 57.7° - - -
4/25 8:30pm 281 1 G 2 61° 56% - - 45° 69.8° 57.7° - - -
4/25 8:20pm 265 1 G 2 61° 53% - - 44° 69.8° 57.7° - - -
4/25 8:10pm 230 2 G 4 62° 53% - - 44° 69.8° 57.7° - - -
4/25 8:00pm 236 2 G 4 62° 51% - - 44° 69.8° 57.7° - - -
4/25 7:50pm 252 2 G 4 63° 48% - - 43° 69.8° 57.7° - - -
4/25 7:40pm 253 2 G 4 63° 45% - - 42° 69.8° 57.7° - - -
4/25 7:30pm 228 3 G 4 64° 43% - - 41° 69.8° 57.7° - - -
4/25 7:20pm 228 3 G 8 65° 42% - - 41° 69.8° 57.7° - - -
4/25 7:10pm 244 2 G 8 65° 41% - - 41° 69.8° 57.7° - - -
4/25 7:00pm 229 3 G 5 65° 41% - - 41° 69.8° 57.7° - - -
4/25 6:50pm 260 4 G 7 66° 41% - - 41° 69.8° 57.7° - - -
4/25 6:40pm 259 5 G 10 66° 40% - - 41° 69.8° 57.7° - - -
4/25 6:30pm 254 5 G 9 66° 40% - - 41° 69.8° 57.7° - - -
4/25 6:20pm 245 7 G 11 67° 42% - - 43° 69.8° 57.7° - - -
4/25 6:10pm 249 6 G 12 66° 45% - - 44° 69.8° 57.7° - - -
4/25 6:00pm 249 7 G 13 67° 46% - - 45° 69.8° 57.7° - - -
4/25 5:50pm 236 7 G 13 67° 48% - - 47° 69.8° 57.7° - - -
4/25 5:40pm 237 8 G 11 67° 48% - - 47° 69.8° 57.7° - - -
4/25 5:30pm 239 6 G 12 68° 48% - - 48° 69.8° 57.7° - - -
4/25 5:20pm 231 6 G 10 68° 48% - - 48° 69.8° 57.7° - - -
4/25 5:10pm 242 6 G 10 68° 47% - - 48° 69.8° 57.7° - - -
4/25 5:00pm 230 6 G 11 68° 47% - - 48° 69.8° 57.7° - - -
4/25 4:50pm 228 5 G 11 68° 47% - - 47° 69.8° 57.7° - - -
4/25 4:40pm 225 7 G 12 69° 46% - - 47° 69.8° 57.7° - - -
4/25 4:30pm 221 7 G 11 69° 46% - - 47° 69.8° 57.7° - - -
4/25 4:20pm 221 8 G 12 68° 47% - - 47° 69.8° 57.7° - - -
4/25 4:10pm 216 7 G 12 68° 47% - - 47° 69.8° 57.7° - - -
4/25 4:00pm 219 8 G 12 68° 47% - - 47° 69.8° 57.7° - - -
4/25 3:50pm 218 8 G 13 68° 48% - - 47° 69.8° 57.7° - - -
4/25 3:40pm 226 8 G 14 68° 48% - - 48° 69.8° 57.7° - - -
4/25 3:30pm 230 8 G 13 68° 48% - - 48° 69.8° 57.7° - - -
4/25 3:20pm 225 8 G 13 68° 48% - - 47° 69.8° 57.7° - - -
4/25 3:10pm 221 8 G 15 68° 48% - - 47° 69.8° 57.7° - - -
4/25 3:00pm 224 10 G 15 68° 47% - - 47° 69.8° 57.7° - - -
4/25 2:50pm 232 9 G 15 68° 47% - - 47° 69.8° 57.7° - - -
4/25 2:40pm 235 8 G 14 68° 48% - - 47° 69.8° 57.7° - - -
4/25 2:30pm 231 9 G 14 69° 48% - - 48° 69.8° 57.7° - - -
4/25 2:20pm 240 9 G 14 68° 47% - - 47° 69.8° 57.7° - - -
4/25 2:10pm 227 8 G 15 68° 47% - - 47° 69.8° 57.7° - - -
4/25 2:00pm 225 9 G 16 69° 47% - - 48° 69.8° 57.7° - - -
4/25 1:50pm 223 9 G 14 69° 46% - - 48° 69.8° 57.7° - - -
4/25 1:40pm 233 7 G 13 69° 46% - - 47° 69.8° 57.7° - - -
4/25 1:30pm 234 8 G 19 69° 46% - - 47° 69.8° 57.7° - - -
4/25 1:20pm 247 8 G 13 69° 47% - - 48° 69.8° 57.7° - - -
4/25 1:10pm 231 8 G 15 69° 46% - - 47° 69.8° 57.7° - - -
4/25 1:00pm 232 6 G 12 69° 45% - - 47° 69.8° 57.7° - - -
4/25 12:50pm 218 9 G 17 68° 46% - - 47° 69.2° 57.7° - - -
4/25 12:40pm 231 7 G 13 68° 46% - - 47° 69.2° 57.7° - - -
4/25 12:30pm 229 8 G 14 68° 48% - - 47° 68.7° 57.7° - - -
4/25 12:20pm 221 8 G 14 67° 49% - - 48° 68° 57.7° - - -
4/25 12:10pm 229 7 G 11 67° 49% - - 48° 68° 57.7° - - -
4/25 12:00pm 226 8 G 14 67° 51% - - 48° 67.9° 57.7° - - -
4/25 11:50am 229 8 G 15 67° 52% - - 49° 67.9° 57.7° - - -
4/25 11:40am 222 8 G 13 66° 54% - - 49° 67.9° 57.7° - - -
4/25 11:30am 220 8 G 12 66° 53% - - 48° 67.9° 57.7° - - -
4/25 11:20am 228 8 G 11 66° 51% - - 48° 67.9° 57.7° - - -
4/25 11:10am 233 7 G 13 66° 50% - - 47° 67.9° 57.7° - - -
4/25 11:00am 214 5 G 9 66° 50% - - 47° 67.9° 57.7° - - -
4/25 10:50am 238 4 G 10 67° 49% - - 47° 67.9° 57.7° - - -
4/25 10:40am 139 3 G 8 67° 48% - - 47° 67.9° 57.7° - - -
4/25 10:30am 231 2 G 5 66° 50% - - 47° 67° 57.7° - - -
4/25 10:20am 193 4 G 9 66° 51% - - 47° 66.3° 57.7° - - -
4/25 10:10am 110 4 G 8 66° 51% - - 47° 66.2° 57.7° - - -
4/25 10:00am 219 4 G 7 65° 54% - - 48° 65.2° 57.7° - - -
4/25 9:50am 235 3 G 8 64° 58% - - 49° 65.1° 57.7° - - -
4/25 9:40am 200 4 G 9 64° 58% - - 49° 64.1° 57.7° - - -
4/25 9:30am 274 3 G 7 63° 61% - - 49° 63.9° 57.7° - - -
4/25 9:20am 289 3 G 6 62° 63% - - 50° 63.9° 57.7° - - -
4/25 9:10am 238 4 G 6 63° 62% - - 50° 63.9° 57.7° - - -
4/25 9:00am 206 2 G 5 63° 62% - - 50° 63.9° 57.7° - - -
4/25 8:50am 232 1 G 4 62° 66% - - 51° 62.9° 57.7° - - -
4/25 8:40am 246 2 G 5 62° 66% - - 50° 62.2° 57.7° - - -
4/25 8:30am 328 1 G 2 61° 67% - - 50° 61.7° 57.7° - - -
4/25 8:20am 177 2 G 6 61° 68% - - 50° 61° 57.7° - - -
4/25 8:10am 168 3 G 6 61° 68% - - 50° 61° 57.7° - - -
4/25 8:00am 182 3 G 6 60° 69% - - 50° 60.7° 57.7° - - -
4/25 7:50am 192 2 G 4 60° 71% - - 50° 60.2° 57.7° - - -
4/25 7:40am 171 1 G 3 59° 72% - - 50° 59.5° 57.7° - - -
4/25 7:30am 185 1 G 2 58° 74% - - 50° 59.5° 57.7° - - -
4/25 7:20am 217 1 G 2 58° 73% - - 50° 59.5° 57.7° - - -
4/25 7:10am 216 1 G 4 58° 73% - - 50° 59.5° 57.7° - - -
4/25 7:00am 191 2 G 4 59° 72% - - 50° 59.5° 57.7° - - -
4/25 6:50am 233 0 G 1 59° 72% - - 50° 59.5° 57.7° - - -
4/25 6:40am 154 1 G 5 59° 72% - - 50° 59.5° 57.7° - - -
4/25 6:30am 142 2 G 4 59° 72% - - 49° 59.5° 57.7° - - -
4/25 6:20am 155 2 G 3 59° 71% - - 49° 59.5° 57.7° - - -
4/25 6:10am 168 2 G 4 59° 71% - - 49° 59.5° 57.7° - - -
4/25 6:00am 183 2 G 3 59° 71% - - 49° 59.5° 57.7° - - -
4/25 5:50am 165 2 G 3 59° 71% - - 49° 59.5° 57.7° - - -
4/25 5:40am 147 3 G 5 59° 71% - - 49° 59.5° 57.7° - - -
4/25 5:30am 132 3 G 4 59° 71% - - 50° 59.5° 57.7° - - -
4/25 5:20am 139 2 G 4 59° 71% - - 50° 59.5° 57.7° - - -
4/25 5:10am 164 2 G 5 59° 71% - - 50° 59.5° 57.7° - - -
4/25 5:00am 158 3 G 5 59° 71% - - 50° 59.5° 57.7° - - -
4/25 4:50am 145 2 G 4 59° 71% - - 50° 59.5° 57.7° - - -
4/25 4:40am 144 0 G 2 59° 72% - - 50° 59.5° 57.7° - - -
4/25 4:30am 237 1 G 3 59° 72% - - 50° 59.5° 57.7° - - -
4/25 4:20am 310 1 G 2 59° 73% - - 50° 59.5° 57.7° - - -
4/25 4:10am 49 0 G 1 59° 74% - - 50° 59.5° 57.7° - - -
4/25 4:00am 215 1 G 3 58° 74% - - 50° 59.5° 57.7° - - -
4/25 3:50am 173 2 G 3 58° 75% - - 50° 59.5° 57.7° - - -
4/25 3:40am 196 1 G 3 58° 76% - - 50° 59.5° 57.7° - - -
4/25 3:30am 208 2 G 4 58° 75% - - 50° 59.5° 57.7° - - -
4/25 3:20am 164 2 G 3 58° 75% - - 51° 59.5° 57.7° - - -
4/25 3:10am 170 2 G 3 58° 75% - - 51° 59.5° 57.7° - - -
4/25 3:00am 198 1 G 2 58° 76% - - 51° 59.5° 57.7° - - -
4/25 2:50am 172 1 G 2 58° 76% - - 51° 59.5° 57.7° - - -
4/25 2:40am 156 0 G 1 58° 77% - - 51° 59.5° 57.7° - - -
4/25 2:30am 226 1 G 3 58° 77% - - 51° 59.5° 57.7° - - -
4/25 2:20am 266 1 G 3 58° 78% - - 51° 59.5° 57.7° - - -
4/25 2:10am 215 1 G 2 58° 78% - - 51° 59.5° 57.7° - - -
4/25 2:00am 235 2 G 4 58° 77% - - 51° 59.5° 57.7° - - -
4/25 1:50am 288 2 G 4 58° 79% - - 52° 59.5° 57.7° - - -
4/25 1:40am 225 1 G 2 58° 81% - - 52° 59.5° 57.7° - - -
4/25 1:30am 248 1 G 2 58° 80% - - 52° 59.5° 57.8° - - -
4/25 1:20am 275 1 G 3 58° 80% - - 52° 59.5° 57.8° - - -
4/25 1:10am 252 2 G 4 58° 79% - - 52° 59.5° 57.8° - - -
4/25 1:00am 216 1 G 5 59° 78% - - 52° 59.5° 58.3° - - -
4/25 12:50am 269 1 G 3 59° 78% - - 52° 59.5° 58.4° - - -
4/25 12:40am 254 2 G 3 59° 78% - - 52° 59.5° 58.4° - - -
4/25 12:30am 240 2 G 4 59° 77% - - 52° 59.5° 58.7° - - -
4/25 12:20am 207 2 G 3 59° 77% - - 52° 59.5° 58.9° - - -
4/25 12:10am 263 1 G 3 59° 77% - - 52° 59.4° 59.1° - - -
4/25 12:00am 10 1 G 3 59° 77% - - 52° 70.8° 58.7° - - -
4/24 11:50pm 122 2 G 3 59° 78% - - 52° 70.8° 58.7° - - -
4/24 11:40pm 131 3 G 5 59° 77% - - 52° 70.8° 58.8° - - -
4/24 11:30pm 187 4 G 7 59° 77% - - 52° 70.8° 58.9° - - -
4/24 11:20pm 204 4 G 7 59° 77% - - 52° 70.8° 59.1° - - -
4/24 11:10pm 220 3 G 6 59° 77% - - 52° 70.8° 59.2° - - -
4/24 11:00pm 233 5 G 7 60° 76% - - 52° 70.8° 59.3° - - -
4/24 10:50pm 235 4 G 7 60° 76% - - 52° 70.8° 59.3° - - -
4/24 10:40pm 247 5 G 8 60° 76% - - 52° 70.8° 59.3° - - -
4/24 10:30pm 256 4 G 6 60° 76% - - 52° 70.8° 59.3° - - -
4/24 10:20pm 245 4 G 7 60° 75% - - 52° 70.8° 59.3° - - -
4/24 10:10pm 241 5 G 7 60° 74% - - 52° 70.8° 59.3° - - -
4/24 10:00pm 239 4 G 8 60° 73% - - 51° 70.8° 59.3° - - -
4/24 9:50pm 225 4 G 8 61° 72% - - 51° 70.8° 59.3° - - -
4/24 9:40pm 226 4 G 7 61° 71% - - 51° 70.8° 59.3° - - -
4/24 9:30pm 226 5 G 7 61° 70% - - 51° 70.8° 59.3° - - -
4/24 9:20pm 221 4 G 8 61° 70% - - 51° 70.8° 59.3° - - -
4/24 9:10pm 221 3 G 6 61° 70% - - 51° 70.8° 59.3° - - -
4/24 9:00pm 241 4 G 8 61° 69% - - 51° 70.8° 59.3° - - -
4/24 8:50pm 231 5 G 8 62° 67% - - 51° 70.8° 59.3° - - -
4/24 8:40pm 224 6 G 9 62° 65% - - 50° 70.8° 59.3° - - -
4/24 8:30pm 218 5 G 9 62° 64% - - 50° 70.8° 59.3° - - -
4/24 8:20pm 229 5 G 8 62° 63% - - 50° 70.8° 59.3° - - -
4/24 8:10pm 209 4 G 7 63° 63% - - 50° 70.8° 59.3° - - -
4/24 8:00pm 196 4 G 7 63° 63% - - 50° 70.8° 59.3° - - -
4/24 7:50pm 194 4 G 9 63° 64% - - 50° 70.8° 59.3° - - -
4/24 7:40pm 208 4 G 7 63° 65% - - 51° 70.8° 59.3° - - -
4/24 7:30pm 216 5 G 9 63° 65% - - 51° 70.8° 59.3° - - -
4/24 7:20pm 224 7 G 13 63° 65% - - 51° 70.8° 59.3° - - -
4/24 7:10pm 228 6 G 11 63° 64% - - 51° 70.8° 59.3° - - -
4/24 7:00pm 231 6 G 10 64° 63% - - 51° 70.8° 59.3° - - -
4/24 6:50pm 230 6 G 12 64° 63% - - 51° 70.8° 59.3° - - -
4/24 6:40pm 237 7 G 12 64° 63% - - 51° 70.8° 59.3° - - -
4/24 6:30pm 245 9 G 14 64° 62% - - 51° 70.8° 59.3° - - -
4/24 6:20pm 242 8 G 14 65° 61% - - 51° 70.8° 59.3° - - -
4/24 6:10pm 243 8 G 13 66° 59% - - 51° 70.8° 59.3° - - -
4/24 6:00pm 237 7 G 14 66° 59% - - 51° 70.8° 59.3° - - -